User: anonymous   Login
Location: Unspecified
(0.0000°N, 0.0000°E)
Time: 11:10:10
(UTC+00:00)
Language:

Okean 3 - Orbit

View from above orbital plane
View from above orbital plane
View from above satellite
View from above satellite

Ground track
Ground track

The orbit data is extracted from the following two-line orbital elements,

1 21397U 91039A   19289.46781159  .00000211  00000-0  17877-4 0  9992
2 21397  82.5236  49.5417 0016314 269.2326  90.7025 14.92844650536779
Epoch (UTC): 16 October 2019 11:13:38
Eccentricity: 0.0016314
inclination: 82.5236°
perigee height: 578 km
apogee height: 600 km
right ascension of ascending node: 49.5417°
argument of perigee: 269.2326°
revolutions per day: 14.92844650
mean anomaly at epoch: 90.7025°
orbit number at epoch: 53677

The dashed part of the orbit path shows where the satellite is in the earth's shadow,  

DLR